Weather in Brusnyatskoye

Russia / Sverdlovsk Oblast     56°42′40″N   61°31′58″E
temp.,
°C
wind,
m/s
gust,
m/s
humid.,
%
clouds,
%
prec.,
mm/h
press.,
hPa
HPBL,
m
26 july, mon
mon2623:00+10wnw3106310 0.0 1017186
02:00+12nw276496 0.0 1018203
05:00+9wnw247334 0.0 101969
08:00+13wnw375792 0.0 1019383
11:00+16wnw583888 0.0 10182400
14:00+16wnw3645100 0.0 10182062
17:00+17wnw364680 0.0 10171532
20:00+15w385749 0.0 1016359
27 july, tue
tue2723:00+13w4106749 0.0 1016292
02:00+12w3107561 0.0 1015277
05:00+12wsw41169100 0.0 1014406
08:00+15wsw512625 0.0 1013552
11:00+17w61159100 0.0 10111527
14:00+17wnw586351 0.5 10111242
17:00+19wnw585643 0.8 10101699
20:00+15nw2678100 0.1 1010250
28 july, wed
wed2823:00+10nw2492100 0.2 101186
02:00+8nw38915 0.0 1011191
05:00+6wnw38945 0.0 1011147
08:00+12wnw496740 0.0 1010553
11:00+14wnw5964100 0.4 10091458
14:00+16wnw71050100 0.4 10092195
17:00+14nw6955100 0.8 10101709
20:00+12wnw48569 0.0 1011707
29 july, thu
thu2923:00+7wnw35758 0.0 101282
02:00+7wsw257488 0.0 1012111
05:00+7w257798 0.0 1011100
08:00+8sw2596100 1.6 1010198
11:00+11sw269159 3.0 1010243
14:00+21wnw510477 0.3 10082114
17:00+21w484839 0.3 10071655
20:00+17sw387627 0.2 1007205
30 july, fri
fri3023:00+13wsw312965 2.6 1007322
02:00+12wsw3896100 0.2 1006156
05:00+13w41297100 0.2 1006321
08:00+16w489283 0.0 1007391
11:00+19w3576100 0.0 1007645
14:00+23wsw3458100 0.1 10051478
17:00+20ssw4680100 1.0 1005411
20:00+18sw2390100 1.0 100454